DW5595 Weather Reports


Display with metric or nautical units.
time (UTC)temp
F
wind
direction
speed
MPH
gust
MPH
rain 1hr
in
rain 24hr
in
rain mn
in
humidity
%
barometer
mb
20260505003023 66 132 2.0 4.0 0.00 0.00 0.00 47 1013.7
20260505001522 67 171 1.0 3.0 0.00 0.00 0.00 45 1013.5
20260505000035 69 159 1.0 2.0 0.00 0.00 0.00 41 1013.6
20260504233014 72 152 0.0 2.0 0.00 0.00 0.00 37 1013.5
20260504231531 73 158 2.0 6.0 0.00 0.00 0.00 36 1013.3
20260504230026 73 163 1.0 7.0 0.00 0.00 0.00 34 1013.3
20260504224526 74 157 2.0 7.0 0.00 0.00 0.00 34 1013.2
20260504223020 74 223 4.0 8.0 0.00 0.00 0.00 34 1013.3
20260504221523 75 138 5.0 11.0 0.00 0.00 0.00 34 1013.3
20260504220020 75 128 1.0 9.0 0.00 0.00 0.00 35 1013.2
20260504214514 75 176 3.0 11.0 0.00 0.00 0.00 34 1013.3
20260504213028 75 126 2.0 12.0 0.00 0.00 0.00 34 1013.2
20260504211510 75 144 5.0 10.0 0.00 0.00 0.00 34 1013.2
20260504210007 76 153 1.0 10.0 0.00 0.00 0.00 33 1013.3
20260504204505 76 117 3.0 9.0 0.00 0.00 0.00 33 1013.5
20260504203007 76 130 1.0 10.0 0.00 0.00 0.00 36 1013.5
20260504201518 76 159 3.0 14.0 0.00 0.00 0.00 33 1013.8
20260504200019 76 150 2.0 11.0 0.00 0.00 0.00 34 1014.0
20260504194514 76 169 2.0 7.0 0.00 0.00 0.00 36 1014.1
20260504193013 76 277 4.0 10.0 0.00 0.00 0.00 36 1014.3
20260504191510 76 131 1.0 10.0 0.00 0.00 0.00 36 1014.5
20260504190007 76 136 1.0 7.0 0.00 0.00 0.00 35 1014.6
20260504184505 76 238 2.0 5.0 0.00 0.00 0.00 34 1014.7
20260504183022 75 111 2.0 8.0 0.00 0.00 0.00 37 1015.0
20260504181522 75 100 0.0 6.0 0.00 0.00 0.00 37 1015.2
20260504180015 74 126 4.0 10.0 0.00 0.00 0.00 35 1015.3
20260504174539 74 148 2.0 10.0 0.00 0.00 0.00 35 1015.3
20260504173010 74 112 2.0 6.0 0.00 0.00 0.00 35 1015.3
20260504171510 74 134 2.0 8.0 0.00 0.00 0.00 34 1015.6
20260504081515 40 157 0.0 0.0 0.00 0.00 0.00 92 1016.4
20260504050018 43 157 0.0 0.0 0.00 0.00 0.00 89 1016.8
20260504044532 43 157 0.0 0.0 0.00 0.00 0.00 87 1016.8
20260504043028 44 157 0.0 0.0 0.00 0.00 0.00 86 1016.5
20260504041528 44 157 0.0 0.0 0.00 0.00 0.00 87 1016.5
20260504040025 45 157 0.0 0.0 0.00 0.00 0.00 84 1016.7
20260504034526 45 157 0.0 0.0 0.00 0.00 0.00 85 1016.6
20260504033021 46 157 0.0 0.0 0.00 0.00 0.00 83 1016.9
20260504031523 47 157 0.0 0.0 0.00 0.00 0.00 83 1016.9
20260504030013 47 157 0.0 0.0 0.00 0.00 0.00 79 1016.8
20260504024511 48 157 0.0 0.0 0.00 0.00 0.00 78 1016.8
20260504023026 48 157 0.0 0.0 0.00 0.00 0.00 77 1016.7
20260504021524 49 157 0.0 0.0 0.00 0.00 0.00 75 1016.6
20260504020022 50 157 0.0 0.0 0.00 0.00 0.00 73 1016.3
20260504014522 50 157 0.0 0.0 0.00 0.00 0.00 73 1016.0
20260504013024 51 157 0.0 0.0 0.00 0.00 0.00 72 1015.8
20260504011515 53 157 0.0 0.0 0.00 0.00 0.00 66 1015.8
20260504010026 54 157 0.0 0.0 0.00 0.00 0.00 63 1015.6
20260504004529 56 157 0.0 0.0 0.00 0.00 0.00 60 1015.5